�������C�����ː����j�^�v���󋵏��
Date,Time,Cs137(Bq/L),Cs134(Bq/L),�S��(Bq/L)
2017/02/19,00:00,0.84,0.092,11
2017/02/19,00:10,0.83,0.11,12
2017/02/19,00:20,0.91,0.12,11
2017/02/19,00:30,0.91,0.12,13
2017/02/19,00:40,0.95,0.10,16
2017/02/19,00:50,0.95,0.094,14
2017/02/19,01:00,0.87,0.11,14
2017/02/19,01:10,0.98,0.093,14
2017/02/19,01:20,0.97,0.096,16
2017/02/19,01:30,0.98,0.10,14
2017/02/19,01:40,0.96,0.11,15
2017/02/19,01:50,0.90,0.11,15
2017/02/19,02:00,0.89,0.12,13
2017/02/19,02:10,0.96,0.10,11
2017/02/19,02:20,0.92,0.10,10
2017/02/19,02:30,0.92,0.11,10
2017/02/19,02:40,0.85,0.099,ND
2017/02/19,02:50,0.91,0.099,10
2017/02/19,03:00,0.92,0.091,12
2017/02/19,03:10,0.91,0.096,16
2017/02/19,03:20,0.94,0.091,16
2017/02/19,03:30,0.96,0.091,17
2017/02/19,03:40,0.93,0.10,18
2017/02/19,03:50,0.93,0.11,18
2017/02/19,04:00,0.93,0.10,18
2017/02/19,04:10,0.92,0.10,16
2017/02/19,04:20,0.92,0.11,14
2017/02/19,04:30,0.90,0.12,13
2017/02/19,04:40,0.92,0.11,12
2017/02/19,04:50,0.93,0.12,12
2017/02/19,05:00,0.92,0.12,11
2017/02/19,05:10,0.92,0.12,10
2017/02/19,05:20,0.93,0.12,9.7
2017/02/19,05:30,0.92,0.12,9.7
2017/02/19,05:40,0.91,0.13,10
2017/02/19,05:50,0.91,0.12,8.8
2017/02/19,06:00,0.92,0.11,10
2017/02/19,06:10,0.94,0.11,12
2017/02/19,06:20,0.92,0.10,14
2017/02/19,06:30,0.96,0.084,14
2017/02/19,06:40,0.94,0.078,13
2017/02/19,06:50,0.90,0.090,13
2017/02/19,07:00,0.89,0.089,12
2017/02/19,07:10,0.87,0.080,10
2017/02/19,07:20,0.87,0.085,12
2017/02/19,07:30,0.84,0.089,9.5
2017/02/19,07:40,0.85,0.086,11
2017/02/19,07:50,0.87,0.074,11
2017/02/19,08:00,0.85,0.074,13
2017/02/19,08:10,0.84,0.080,14
2017/02/19,08:20,0.85,0.082,13
2017/02/19,08:30,0.83,0.082,16
2017/02/19,08:40,0.81,0.085,16
2017/02/19,08:50,0.81,0.082,18
2017/02/19,09:00,0.81,0.080,16
2017/02/19,09:10,0.80,0.080,16
2017/02/19,09:20,0.79,0.074,17
2017/02/19,09:30,0.81,0.073,14
2017/02/19,09:40,0.81,0.073,16
2017/02/19,09:50,0.78,0.087,15
2017/02/19,10:00,0.79,0.087,15
2017/02/19,10:10,0.81,0.082,14
2017/02/19,10:20,0.83,0.095,12
2017/02/19,10:30,0.82,0.10,12
2017/02/19,10:40,0.84,0.11,12
2017/02/19,10:50,0.85,0.11,12
2017/02/19,11:00,0.87,0.11,14
2017/02/19,11:10,0.88,0.12,14
2017/02/19,11:20,0.85,0.12,14
2017/02/19,11:30,0.85,0.11,16
2017/02/19,11:40,0.85,0.11,16
2017/02/19,11:50,0.88,0.11,19
2017/02/19,12:00,0.86,0.11,16
2017/02/19,12:10,0.89,0.11,16
2017/02/19,12:20,0.93,0.12,16
2017/02/19,12:30,0.95,0.12,17
2017/02/19,12:40,0.97,0.12,13
2017/02/19,12:50,0.95,0.12,10
2017/02/19,13:00,1.0,0.13,12
2017/02/19,13:10,0.99,0.13,12
2017/02/19,13:20,0.99,0.12,9.5
2017/02/19,13:30,0.98,0.13,8.9
2017/02/19,13:40,0.97,0.12,9.2
2017/02/19,13:50,0.99,0.12,12
2017/02/19,14:00,0.98,0.12,13
2017/02/19,14:10,0.99,0.12,12
2017/02/19,14:20,1.0,0.13,12
2017/02/19,14:30,0.99,0.13,11
2017/02/19,14:40,1.1,0.13,14
2017/02/19,14:50,1.0,0.13,12
2017/02/19,15:00,1.1,0.12,9.5
2017/02/19,15:10,1.1,0.12,11
2017/02/19,15:20,1.1,0.12,14
2017/02/19,15:30,1.1,0.13,12
2017/02/19,15:40,1.0,0.12,11
2017/02/19,15:50,0.99,0.10,9.7
2017/02/19,16:00,0.95,0.11,11
2017/02/19,16:10,0.96,0.11,ND
2017/02/19,16:20,0.91,0.088,ND
2017/02/19,16:30,0.93,0.084,8.9
2017/02/19,16:40,0.97,0.10,9.9
2017/02/19,16:50,0.98,0.097,8.9
2017/02/19,17:00,1.0,0.11,ND
2017/02/19,17:10,1.1,0.11,ND
2017/02/19,17:20,1.1,0.12,ND
2017/02/19,17:30,1.2,0.11,ND
2017/02/19,17:40,1.2,0.11,ND
2017/02/19,17:50,1.2,0.11,ND
2017/02/19,18:00,1.2,0.11,ND
2017/02/19,18:10,1.3,0.11,10
2017/02/19,18:20,1.3,0.12,12
2017/02/19,18:30,1.3,0.12,12
2017/02/19,18:40,1.3,0.12,13
2017/02/19,18:50,1.3,0.12,12
2017/02/19,19:00,1.2,0.13,9.2
2017/02/19,19:10,1.2,0.13,ND
2017/02/19,19:20,1.3,0.14,ND
2017/02/19,19:30,1.3,0.13,10
2017/02/19,19:40,1.3,0.14,8.9
2017/02/19,19:50,1.3,0.13,10
2017/02/19,20:00,1.2,0.13,12
2017/02/19,20:10,1.2,0.13,12
2017/02/19,20:20,1.2,0.13,12
2017/02/19,20:30,1.2,0.13,10
2017/02/19,20:40,1.2,0.12,10
2017/02/19,20:50,1.2,0.13,9.3
2017/02/19,21:00,1.2,0.13,11
2017/02/19,21:10,1.2,0.13,10
2017/02/19,21:20,1.2,0.12,11
2017/02/19,21:30,1.1,0.12,12
2017/02/19,21:40,1.1,0.12,11
2017/02/19,21:50,1.1,0.12,13
2017/02/19,22:00,1.1,0.13,9.6
2017/02/19,22:10,1.1,0.13,8.8
2017/02/19,22:20,1.0,0.12,8.8
2017/02/19,22:30,1.0,0.11,ND
2017/02/19,22:40,1.0,0.11,ND
2017/02/19,22:50,1.0,0.10,10
2017/02/19,23:00,1.0,0.10,12
2017/02/19,23:10,0.96,0.082,14
2017/02/19,23:20,0.90,0.080,13
2017/02/19,23:30,0.92,0.072,11
2017/02/19,23:40,0.91,0.083,ND
2017/02/19,23:50,0.91,0.081,ND
